EN

Hourly Weather Bartezek

Today, 23 January, Saturday

Time Temperature Precipitation Wind Pressure Humidity
00:00 +1°C° 0 mm 2 mps 738 mmHg 94%
01:00 +1°C° 0 mm 2 mps 738 mmHg 95%
02:00 +1°C° 0 mm 2 mps 738 mmHg 95%
03:00 +1°C° 0 mm 1 mps 738 mmHg 95%
04:00 +1°C° 0 mm 1 mps 738 mmHg 95%
05:00 +1°C° 0 mm 1 mps 738 mmHg 95%
06:00 -1°C° 0 mm 2 mps 738 mmHg 95%
07:00 -1°C° 0 mm 2 mps 738 mmHg 95%
08:00 0°C° 0 mm 3 mps 738 mmHg 95%
09:00 0°C° 0 mm 3 mps 738 mmHg 94%
10:00 0°C° 0 mm 4 mps 738 mmHg 94%
11:00 0°C° 0.3 mm 4 mps 737 mmHg 94%
12:00 0°C° 0.3 mm 4 mps 737 mmHg 95%
13:00 +1°C° 0.3 mm 5 mps 736 mmHg 96%
14:00 +1°C° 0.8 mm 5 mps 735 mmHg 96%
15:00 +1°C° 0.8 mm 5 mps 735 mmHg 96%
16:00 +1°C° 0.8 mm 5 mps 734 mmHg 97%
17:00 +1°C° 0 mm 5 mps 733 mmHg 95%
18:00 +1°C° 0 mm 5 mps 733 mmHg 93%
19:00 +1°C° 0 mm 5 mps 733 mmHg 91%
20:00 +1°C° 0 mm 5 mps 733 mmHg 90%
21:00 +1°C° 0 mm 5 mps 733 mmHg 90%
22:00 0°C° 0 mm 5 mps 733 mmHg 89%
23:00 0°C° 0 mm 5 mps 733 mmHg 89%

Tomorrow, 24 January, Sunday

Time Temperature Precipitation Wind Pressure Humidity
00:00 -1°C° 0 mm 6 mps 733 mmHg 89%
01:00 -2°C° 0 mm 6 mps 733 mmHg 90%
02:00 -2°C° 0 mm 6 mps 733 mmHg 90%
03:00 -2°C° 0 mm 6 mps 734 mmHg 90%
04:00 -2°C° 0 mm 6 mps 734 mmHg 90%
05:00 -1°C° 0 mm 5 mps 734 mmHg 91%
06:00 -1°C° 0 mm 5 mps 734 mmHg 92%
07:00 -1°C° 0 mm 5 mps 735 mmHg 94%
08:00 -1°C° 0 mm 4 mps 735 mmHg 95%
09:00 -1°C° 0 mm 4 mps 735 mmHg 96%
10:00 -1°C° 0 mm 4 mps 735 mmHg 97%
11:00 0°C° 0 mm 3 mps 735 mmHg 97%
12:00 0°C° 0 mm 3 mps 735 mmHg 97%
13:00 +1°C° 0 mm 2 mps 735 mmHg 98%
14:00 +1°C° 0 mm 2 mps 735 mmHg 98%
15:00 +1°C° 0 mm 2 mps 736 mmHg 98%
16:00 +1°C° 0 mm 2 mps 736 mmHg 98%
17:00 0°C° 0 mm 3 mps 736 mmHg 98%
18:00 0°C° 0 mm 3 mps 736 mmHg 97%
19:00 -1°C° 0 mm 3 mps 736 mmHg 97%
20:00 -1°C° 0 mm 3 mps 736 mmHg 97%
21:00 -1°C° 0 mm 3 mps 736 mmHg 97%
22:00 -1°C° 0 mm 3 mps 736 mmHg 96%
23:00 -1°C° 0.1 mm 3 mps 736 mmHg 96%

Day after tomorrow, 25 January, Monday

Time Temperature Precipitation Wind Pressure Humidity
00:00 -1°C° 0.1 mm 3 mps 737 mmHg 96%
01:00 -1°C° 0.1 mm 3 mps 737 mmHg 96%
02:00 -1°C° 0.1 mm 3 mps 737 mmHg 95%
03:00 -1°C° 0.1 mm 3 mps 737 mmHg 94%
04:00 -2°C° 0.1 mm 3 mps 737 mmHg 94%
05:00 -2°C° 0 mm 3 mps 737 mmHg 93%
06:00 -2°C° 0 mm 3 mps 738 mmHg 93%
07:00 -2°C° 0 mm 3 mps 738 mmHg 93%
08:00 -2°C° 0 mm 3 mps 739 mmHg 91%
09:00 -2°C° 0 mm 4 mps 739 mmHg 89%
10:00 -2°C° 0 mm 4 mps 740 mmHg 86%
11:00 -2°C° 0 mm 4 mps 740 mmHg 86%
12:00 -2°C° 0 mm 4 mps 740 mmHg 86%
13:00 -1°C° 0 mm 4 mps 741 mmHg 86%
14:00 -2°C° 0 mm 4 mps 741 mmHg 86%
15:00 -2°C° 0 mm 4 mps 741 mmHg 87%
16:00 -1°C° 0 mm 3 mps 741 mmHg 87%
17:00 -1°C° 0 mm 3 mps 742 mmHg 87%
18:00 -2°C° 0 mm 3 mps 742 mmHg 86%
19:00 -2°C° 0 mm 3 mps 742 mmHg 86%
20:00 -2°C° 0 mm 3 mps 742 mmHg 87%
21:00 -2°C° 0 mm 3 mps 742 mmHg 88%
22:00 -4°C° 0 mm 3 mps 742 mmHg 89%
23:00 -3°C° 0 mm 2 mps 742 mmHg 90%

26 January, Tuesday

Time Temperature Precipitation Wind Pressure Humidity
00:00 -3°C° 0 mm 2 mps 742 mmHg 92%
01:00 -3°C° 0 mm 2 mps 742 mmHg 93%
02:00 -3°C° 0 mm 2 mps 742 mmHg 92%
03:00 -2°C° 0 mm 3 mps 742 mmHg 90%
04:00 -2°C° 0 mm 3 mps 742 mmHg 88%
05:00 -2°C° 0 mm 3 mps 742 mmHg 90%
06:00 -2°C° 0 mm 3 mps 742 mmHg 91%
07:00 -3°C° 0 mm 4 mps 743 mmHg 92%
08:00 -3°C° 0 mm 4 mps 743 mmHg 90%
09:00 -2°C° 0 mm 5 mps 743 mmHg 87%
10:00 -2°C° 0 mm 5 mps 743 mmHg 85%
11:00 -2°C° 0 mm 5 mps 743 mmHg 84%
12:00 -1°C° 0 mm 5 mps 743 mmHg 84%
13:00 -2°C° 0 mm 6 mps 743 mmHg 83%
14:00 -1°C° 0 mm 5 mps 743 mmHg 84%
15:00 -1°C° 0 mm 5 mps 743 mmHg 85%
16:00 -2°C° 0 mm 4 mps 743 mmHg 87%
17:00 -2°C° 0 mm 5 mps 743 mmHg 87%
18:00 -2°C° 0 mm 5 mps 743 mmHg 88%
19:00 -2°C° 0 mm 5 mps 743 mmHg 88%
20:00 -2°C° 0.1 mm 5 mps 744 mmHg 87%
21:00 -2°C° 0.1 mm 5 mps 744 mmHg 86%
22:00 -3°C° 0.1 mm 6 mps 744 mmHg 85%
23:00 -3°C° 0.1 mm 6 mps 744 mmHg 85%

27 January, Wednesday

Time Temperature Precipitation Wind Pressure Humidity
00:00 -3°C° 0.1 mm 6 mps 744 mmHg 86%
01:00 -3°C° 0.1 mm 6 mps 744 mmHg 86%
02:00 -3°C° 0.1 mm 6 mps 743 mmHg 87%
03:00 -4°C° 0.1 mm 6 mps 743 mmHg 89%
04:00 -4°C° 0.1 mm 6 mps 743 mmHg 90%
05:00 -4°C° 0 mm 5 mps 743 mmHg 90%
06:00 -5°C° 0 mm 5 mps 743 mmHg 90%
07:00 -4°C° 0 mm 4 mps 743 mmHg 89%
08:00 -4°C° 0 mm 5 mps 743 mmHg 89%
09:00 -4°C° 0 mm 5 mps 744 mmHg 89%
10:00 -2°C° 0 mm 5 mps 744 mmHg 89%
11:00 -2°C° 0 mm 5 mps 744 mmHg 88%
12:00 -2°C° 0 mm 5 mps 744 mmHg 88%
13:00 -2°C° 0 mm 5 mps 744 mmHg 87%
14:00 -2°C° 0 mm 4 mps 744 mmHg 88%
15:00 -2°C° 0 mm 4 mps 745 mmHg 90%
16:00 -2°C° 0 mm 4 mps 745 mmHg 91%
17:00 -2°C° 0 mm 4 mps 745 mmHg 92%
18:00 -2°C° 0 mm 4 mps 745 mmHg 93%
19:00 -2°C° 0 mm 4 mps 745 mmHg 94%
20:00 -2°C° 0 mm 4 mps 746 mmHg 93%
21:00 -2°C° 0 mm 4 mps 746 mmHg 93%
22:00 -2°C° 0 mm 4 mps 746 mmHg 92%
23:00 -2°C° 0 mm 3 mps 746 mmHg 93%

28 January, Thursday

Time Temperature Precipitation Wind Pressure Humidity
00:00 -2°C° 0 mm 3 mps 746 mmHg 93%
01:00 -2°C° 0 mm 3 mps 746 mmHg 93%
02:00 -2°C° 0 mm 3 mps 746 mmHg 93%
03:00 -2°C° 0 mm 3 mps 746 mmHg 94%
04:00 -4°C° 0 mm 3 mps 746 mmHg 94%
05:00 -4°C° 0 mm 3 mps 746 mmHg 95%
06:00 -4°C° 0 mm 3 mps 746 mmHg 95%
07:00 -4°C° 0 mm 3 mps 746 mmHg 96%
08:00 -4°C° 0 mm 3 mps 747 mmHg 94%
09:00 -4°C° 0 mm 3 mps 747 mmHg 92%
10:00 -2°C° 0 mm 3 mps 747 mmHg 91%
11:00 -2°C° 0 mm 2 mps 746 mmHg 90%
12:00 -2°C° 0 mm 2 mps 746 mmHg 89%
13:00 -2°C° 0 mm 2 mps 746 mmHg 88%
14:00 -2°C° 0 mm 2 mps 746 mmHg 89%
15:00 -2°C° 0 mm 2 mps 746 mmHg 90%
16:00 0°C° 0 mm 1 mps 746 mmHg 90%
17:00 0°C° 0 mm 1 mps 746 mmHg 90%
18:00 -1°C° 0 mm 1 mps 746 mmHg 89%
19:00 -1°C° 0 mm 1 mps 746 mmHg 89%
Show more

We Need Your Consent

Meteoprog and our Service Providers may store and access personal data such as cookies, device identifiers or other similar technologies on your device and process such data to personalise content and ads, as well as provide social media features and to analyse the traffic.

  • Store and/or access information on your device

    Cookies, device identifiers or other information can be stored or accessed on your device for the purposes indicated above.

  • Personalised ads and content, ad and content measurement, audience insights, and products development

    Ads and content can be personalised based on a profile. More data can be added to better personalise ads and content. Ad and content performance can be measured. Insights about the audience who saw the ads and content can be derived. Such data can be used to develop or improve user’s experience, systems and software.

By clicking ‘I Agree’ you will allow the use of indicated cookies, device identifiers, web beacons or other similar technologies. Your settings can be changed in the browser on your device.

For certain purposes, legitimate interests may be relied on, rather than consent. You can read more about this in our Privacy and Cookie Policy.